This is the latest recevied weather packets stored in our database for station/object KD4EG. If no packets are shown the sender has not sent any weather packets the latest 10 day(s).
| Time | Temp. | Humidity | Pressure | Rain* | Wind** | Luminosity | Snow |
|---|---|---|---|---|---|---|---|
| 1788026314 | 28.89° C | 64% | 1025.8 hPa | 0 mm | - | 667 W/m² | - |
| 1788026010 | 28.33° C | 65% | 1025.7 hPa | 0 mm | - | 679 W/m² | - |
| 1788025709 | 28.89° C | 66% | 1026.1 hPa | 0 mm | - | 228 W/m² | - |
| 1788025409 | 28.33° C | 64% | 1026.1 hPa | 0 mm | - | 318 W/m² | - |
| 1788025105 | 28.89° C | 65% | 1026.1 hPa | 0 mm | - | 682 W/m² | - |
| 1788024803 | 28.89° C | 64% | 1025.9 hPa | 0 mm | - | 544 W/m² | - |
| 1788024500 | 28.33° C | 65% | 1026.2 hPa | 0 mm | - | 722 W/m² | - |
| 1788024207 | 28.33° C | 66% | 1026.4 hPa | 0 mm | - | 323 W/m² | - |
| 1788023895 | 27.78° C | 66% | 1026.4 hPa | 0 mm | - | 359 W/m² | - |
| 1788023590 | 27.78° C | 67% | 1026.6 hPa | 0 mm | - | 284 W/m² | - |
| 1788023286 | 27.78° C | 68% | 1026.2 hPa | 0 mm | - | 719 W/m² | - |
| 1788022980 | 27.22° C | 69% | 1026.5 hPa | 0 mm | - | 260 W/m² | - |
| 1788022678 | 27.78° C | 69% | 1026.4 hPa | 0 mm | - | 248 W/m² | - |
| 1788022371 | 27.22° C | 69% | 1026.4 hPa | 0 mm | - | 470 W/m² | - |
| 1788022071 | 27.22° C | 68% | 1026.5 hPa | 0 mm | - | 262 W/m² | - |
| 1788021765 | 27.78° C | 70% | 1026.4 hPa | 0 mm | - | 268 W/m² | - |
| 1788021463 | 26.67° C | 72% | 1026.6 hPa | 0 mm | - | 440 W/m² | - |
| 1788021158 | 26.67° C | 72% | 1026.4 hPa | 0 mm | - | 284 W/m² | - |
| 1788020853 | 26.67° C | 72% | 1026.6 hPa | 0 mm | - | 219 W/m² | - |
| 1788020548 | 26.67° C | 72% | 1026.6 hPa | 0 mm | - | 249 W/m² | - |
| 1788020244 | 26.11° C | 72% | 1026.3 hPa | 0 mm | - | 306 W/m² | - |
| 1788019940 | 26.67° C | 72% | 1026.5 hPa | 0 mm | - | 368 W/m² | - |
| 1788019640 | 26.11° C | 72% | 1026.3 hPa | 0 mm | - | 233 W/m² | - |
| 1788019334 | 26.67° C | 71% | 1026.2 hPa | 0 mm | - | 508 W/m² | - |
| 1788019032 | 26.11° C | 74% | 1026.6 hPa | 0 mm | - | 386 W/m² | - |
* Rain latest hour (hover to see other rain measurements)
** Current wind speed in m/s (hover to see current wind gust speed)